TimeEDT,TemperatureF,Dew PointF,Humidity,Sea Level PressureIn,VisibilityMPH,Wind Direction,Wind SpeedMPH,Gust SpeedMPH,PrecipitationIn,Events,Conditions,WindDirDegrees,DateUTC
12:54 AM,48.9,42.1,77,30.04,-9999.0,WNW,10.4,-,N/A,,Unknown,290,2012-10-23 04:54:00
1:54 AM,48.9,41.0,74,30.04,-9999.0,WNW,11.5,-,N/A,,Unknown,290,2012-10-23 05:54:00
2:54 AM,48.9,39.9,71,30.05,-9999.0,WNW,12.7,-,N/A,,Unknown,290,2012-10-23 06:54:00
3:54 AM,48.9,41.0,74,30.04,-9999.0,WNW,11.5,-,N/A,,Unknown,300,2012-10-23 07:54:00
4:54 AM,48.9,41.0,74,30.04,-9999.0,NW,13.8,-,N/A,,Unknown,320,2012-10-23 08:54:00
5:54 AM,46.9,39.9,77,30.06,-9999.0,NW,13.8,-,N/A,,Unknown,310,2012-10-23 09:54:00
6:54 AM,46.9,39.9,77,30.08,-9999.0,NW,16.1,-,N/A,,Unknown,310,2012-10-23 10:54:00
7:54 AM,48.0,39.9,74,30.09,-9999.0,NW,16.1,-,N/A,,Unknown,320,2012-10-23 11:54:00
8:54 AM,51.1,41.0,68,30.11,-9999.0,NW,12.7,21.9,N/A,,Unknown,310,2012-10-23 12:54:00
9:54 AM,55.9,41.0,57,30.12,-9999.0,NW,15.0,21.9,N/A,,Unknown,320,2012-10-23 13:54:00
10:54 AM,59.0,39.9,49,30.12,-9999.0,NW,16.1,21.9,N/A,,Unknown,320,2012-10-23 14:54:00
11:54 AM,61.0,39.9,46,30.11,-9999.0,NW,6.9,-,N/A,,Unknown,320,2012-10-23 15:54:00
12:54 PM,62.1,39.0,43,30.09,-9999.0,WNW,8.1,-,N/A,,Unknown,290,2012-10-23 16:54:00
1:54 PM,63.0,39.9,43,30.08,-9999.0,Variable,4.6,-,N/A,,Unknown,0,2012-10-23 17:54:00
2:54 PM,62.1,41.0,46,30.07,-9999.0,West,3.5,-,N/A,,Unknown,280,2012-10-23 18:54:00
3:54 PM,62.1,41.0,46,30.07,-9999.0,West,8.1,-,N/A,,Unknown,260,2012-10-23 19:54:00
4:54 PM,61.0,42.1,50,30.07,-9999.0,West,6.9,-,N/A,,Unknown,270,2012-10-23 20:54:00
5:54 PM,57.9,43.0,58,30.09,-9999.0,NNW,5.8,-,N/A,,Unknown,330,2012-10-23 21:54:00
6:54 PM,57.9,42.1,56,30.10,-9999.0,NW,6.9,-,N/A,,Unknown,320,2012-10-23 22:54:00
7:54 PM,55.9,43.0,62,30.10,-9999.0,North,8.1,-,N/A,,Unknown,360,2012-10-23 23:54:00
8:54 PM,57.0,42.1,57,30.11,-9999.0,NNE,9.2,-,N/A,,Unknown,30,2012-10-24 00:54:00
9:54 PM,55.9,43.0,62,30.12,-9999.0,NE,9.2,-,N/A,,Unknown,40,2012-10-24 01:54:00
10:54 PM,55.9,42.1,60,30.12,-9999.0,NNE,5.8,-,N/A,,Unknown,30,2012-10-24 02:54:00
11:54 PM,55.0,43.0,64,30.14,-9999.0,North,3.5,-,N/A,,Unknown,350,2012-10-24 03:54:00